IA5ITY-13 Weather Reports


Display with metric or nautical units.
time (UTC)temp
F
wind
direction
speed
MPH
gust
MPH
rain 1hr
in
rain 24hr
in
rain mn
in
humidity
%
barometer
mb
20260505041512 63 232 3.0 3.0 0.00 0.00 0.00 99 1011.2
20260505041012 63 228 13.0 17.0 0.00 0.00 0.00 99 1011.1
20260505040509 63 85 1.0 8.0 0.00 0.00 0.00 99 1011.1
20260505040033 63 334 4.0 4.0 0.00 0.00 0.00 99 1010.9
20260505035508 63 318 0.0 0.0 0.00 0.00 0.00 99 1011.0
20260505035011 63 177 0.0 0.0 0.00 0.00 0.00 99 1011.1
20260505034512 63 2 0.0 0.0 0.00 0.00 0.00 99 1011.0
20260505034013 63 217 4.0 4.0 0.00 0.00 0.00 99 1011.0
20260505033508 63 196 0.0 0.0 0.00 0.00 0.00 99 1011.2
20260505033022 63 231 0.0 0.0 0.00 0.00 0.00 99 1011.1
20260505032508 63 12 0.0 0.0 0.00 0.00 0.00 99 1011.1
20260505032012 63 102 0.0 0.0 0.00 0.00 0.00 99 1011.3
20260505031512 63 251 0.0 0.0 0.00 0.00 0.00 99 1011.7
20260505031013 63 232 0.0 0.0 0.00 0.00 0.00 99 1011.6
20260505030509 63 260 0.0 0.0 0.00 0.00 0.00 99 1011.4
20260505030031 63 231 0.0 0.0 0.00 0.00 0.00 99 1011.6
20260505025508 63 63 0.0 0.0 0.00 0.00 0.00 99 1011.5
20260505025012 63 231 5.0 5.0 0.00 0.00 0.00 99 1011.5
20260505024512 63 201 4.0 6.0 0.00 0.00 0.00 99 1011.5
20260505024012 63 240 0.0 0.0 0.00 0.00 0.00 99 1011.6
20260505023508 63 222 0.0 0.0 0.00 0.00 0.00 99 1011.5
20260505023021 63 232 0.0 0.0 0.00 0.00 0.00 99 1011.7
20260505022508 61 285 0.0 0.0 0.00 0.00 0.00 99 1011.7
20260505022011 61 83 0.0 0.0 0.00 0.00 0.00 99 1011.9
20260505021512 61 256 2.0 4.0 0.00 0.00 0.00 99 1011.9
20260505021012 61 214 0.0 0.0 0.00 0.00 0.00 99 1011.8
20260505020509 61 205 0.0 0.0 0.00 0.00 0.00 99 1011.8
20260505020030 61 250 0.0 0.0 0.00 0.00 0.00 99 1011.9
20260505015509 61 204 0.0 0.0 0.00 0.00 0.00 99 1011.9
20260505015012 61 227 0.0 0.0 0.00 0.00 0.00 99 1012.0
20260505014512 61 226 0.0 0.0 0.00 0.00 0.00 99 1012.0
20260505014011 61 231 0.0 0.0 0.00 0.00 0.00 99 1012.0
20260505013509 61 213 0.0 0.0 0.00 0.00 0.00 99 1012.1
20260505013021 61 215 0.0 0.0 0.00 0.00 0.00 99 1012.0
20260505012508 61 170 0.0 0.0 0.00 0.00 0.00 99 1012.2
20260505012012 61 237 0.0 0.0 0.00 0.00 0.00 99 1012.2
20260505011512 61 217 0.0 0.0 0.00 0.00 0.00 99 1012.4
20260505011012 61 182 0.0 0.0 0.00 0.00 0.00 99 1012.3
20260505010508 61 176 0.0 0.0 0.00 0.00 0.00 99 1012.4
20260505010030 61 169 0.0 0.0 0.00 0.00 0.00 99 1012.4
20260505005509 61 190 0.0 0.0 0.00 0.00 0.00 99 1012.4
20260505005012 61 204 0.0 0.0 0.00 0.00 0.00 99 1012.6
20260505004512 61 223 0.0 0.0 0.00 0.00 0.00 99 1012.6
20260505004012 61 196 0.0 0.0 0.00 0.00 0.00 99 1012.7
20260505003509 61 227 0.0 0.0 0.00 0.00 0.00 99 1012.7
20260505003022 61 219 0.0 0.0 0.00 0.00 0.00 99 1012.7
20260505002509 61 156 0.0 0.0 0.00 0.00 0.00 99 1012.9
20260505002012 61 92 0.0 0.0 0.00 0.00 0.00 99 1013.0
20260505001512 61 122 0.0 0.0 0.00 0.00 0.00 99 1013.0
20260505001012 61 218 0.0 0.0 0.00 0.00 0.00 99 1013.0
20260505000509 61 97 0.0 0.0 0.00 0.00 0.00 99 1013.2
20260505000034 61 163 0.0 0.0 0.00 0.00 0.00 99 1013.2
20260504235509 61 110 0.0 0.0 0.00 0.00 0.00 99 1013.2
20260504235012 61 93 0.0 0.0 0.00 0.00 0.00 99 1013.3
20260504234512 61 113 0.0 0.0 0.00 0.00 0.00 99 1013.5
20260504234013 61 99 0.0 0.0 0.00 0.00 0.00 99 1013.7
20260504233022 61 69 0.0 0.0 0.00 0.00 0.00 99 1013.7
20260504232510 61 85 0.0 0.0 0.00 0.00 0.00 99 1013.8
20260504232012 61 69 0.0 0.0 0.00 0.00 0.00 99 1013.9
20260504231512 61 154 0.0 0.0 0.00 0.00 0.00 99 1014.0
20260504231013 61 86 0.0 0.0 0.00 0.00 0.00 99 1014.1
20260504230508 61 74 0.0 0.0 0.00 0.00 0.00 99 1014.1
20260504230033 61 117 0.0 0.0 0.00 0.00 0.00 99 1014.1
20260504225509 61 95 0.0 0.0 0.00 0.00 0.00 99 1014.3
20260504225012 61 130 0.0 0.0 0.00 0.00 0.00 99 1014.3
20260504224512 61 71 0.0 0.0 0.00 0.00 0.00 99 1014.3
20260504224012 61 126 0.0 0.0 0.00 0.00 0.00 99 1014.2
20260504223509 61 109 0.0 0.0 0.00 0.00 0.00 99 1014.4
20260504223023 61 100 0.0 0.0 0.00 0.00 0.00 99 1014.3
20260504222509 61 129 0.0 0.0 0.00 0.00 0.00 99 1014.5
20260504222013 61 146 0.0 0.0 0.00 0.00 0.00 99 1014.5
20260504221512 61 75 0.0 0.0 0.00 0.00 0.00 99 1014.6
20260504221012 61 83 0.0 0.0 0.00 0.00 0.00 99 1014.6
20260504220508 61 104 0.0 0.0 0.00 0.00 0.00 99 1014.7
20260504220032 61 109 0.0 0.0 0.00 0.00 0.00 99 1014.8
20260504215510 61 106 0.0 0.0 0.00 0.00 0.00 99 1014.8
20260504215012 61 100 1.0 1.0 0.00 0.00 0.00 99 1015.0
20260504214512 61 2 0.0 0.0 0.00 0.00 0.00 99 1015.0
20260504214012 61 110 0.0 0.0 0.00 0.00 0.00 99 1015.0
20260504213509 61 98 0.0 0.0 0.00 0.00 0.00 99 1015.0
20260504213023 61 173 0.0 0.0 0.00 0.00 0.00 99 1015.0
20260504212012 61 169 0.0 0.0 0.00 0.00 0.00 99 1015.1
20260504211512 63 234 0.0 0.0 0.00 0.00 0.00 99 1015.1
20260504211012 63 127 0.0 0.0 0.00 0.00 0.00 99 1015.1
20260504210509 63 157 0.0 0.0 0.00 0.00 0.00 99 1015.1
20260504210030 63 256 0.0 0.0 0.00 0.00 0.00 99 1015.3
20260504205509 63 93 0.0 0.0 0.00 0.00 0.00 99 1015.1
20260504205012 63 70 1.0 1.0 0.00 0.00 0.00 99 1015.2
20260504204513 63 84 0.0 0.0 0.00 0.00 0.00 99 1015.2
20260504204012 63 43 0.0 0.0 0.00 0.00 0.00 99 1015.2
20260504203510 63 186 0.0 0.0 0.00 0.00 0.00 99 1015.3
20260504203021 63 209 0.0 0.0 0.00 0.00 0.00 99 1015.3
20260504202012 63 11 0.0 0.0 0.00 0.00 0.00 99 1015.1
20260504201512 63 105 0.0 0.0 0.00 0.00 0.00 99 1015.2
20260504201013 63 121 0.0 0.0 0.00 0.00 0.00 99 1015.1
20260504200508 63 82 0.0 0.0 0.00 0.00 0.00 99 1015.1
20260504200031 63 76 0.0 0.0 0.00 0.00 0.00 99 1015.1
20260504195508 63 104 0.0 0.0 0.00 0.00 0.00 99 1015.2
20260504195012 63 139 0.0 0.0 0.00 0.00 0.00 99 1015.2
20260504194512 63 97 0.0 0.0 0.00 0.00 0.00 99 1015.1
20260504194012 63 94 0.0 0.0 0.00 0.00 0.00 99 1015.1
20260504193509 63 26 0.0 0.0 0.00 0.00 0.00 99 1015.0
20260504193025 63 96 0.0 0.0 0.00 0.00 0.00 99 1015.2
20260504192510 63 97 0.0 0.0 0.00 0.00 0.00 99 1015.2
20260504192013 63 65 0.0 0.0 0.00 0.00 0.00 98 1015.2
20260504191512 63 98 0.0 0.0 0.00 0.00 0.00 98 1015.2
20260504191013 63 102 0.0 0.0 0.00 0.00 0.00 98 1015.2
20260504190509 63 109 0.0 0.0 0.00 0.00 0.00 98 1015.2
20260504190030 63 36 0.0 0.0 0.00 0.00 0.00 98 1015.1
20260504185509 63 17 0.0 0.0 0.00 0.00 0.00 99 1015.1
20260504185012 63 59 0.0 0.0 0.00 0.00 0.00 99 1015.2
20260504184512 63 28 0.0 0.0 0.00 0.00 0.00 99 1015.0
20260504184013 63 87 0.0 0.0 0.00 0.00 0.00 99 1015.0
20260504183508 63 101 1.0 1.0 0.00 0.00 0.00 99 1015.0
20260504183022 63 63 0.0 0.0 0.00 0.00 0.00 99 1015.0
20260504182509 63 96 0.0 0.0 0.00 0.00 0.00 99 1015.1
20260504181512 63 145 0.0 0.0 0.00 0.00 0.00 97 1015.1
20260504181013 63 95 0.0 0.0 0.00 0.00 0.00 96 1015.1
20260504180508 63 109 0.0 0.0 0.00 0.00 0.00 96 1015.2
20260504175509 63 105 0.0 0.0 0.00 0.00 0.00 95 1015.0
20260504175012 63 53 0.0 0.0 0.00 0.00 0.00 94 1015.0
20260504174013 63 132 0.0 0.0 0.00 0.00 0.00 92 1015.0
20260504173513 63 79 0.0 0.0 0.00 0.00 0.00 91 1015.1
20260504173021 63 94 0.0 0.0 0.00 0.00 0.00 91 1014.9
20260504172508 63 96 0.0 0.0 0.00 0.00 0.00 90 1015.1
20260504172013 63 105 0.0 0.0 0.00 0.00 0.00 89 1015.3
20260504171512 63 317 0.0 0.0 0.00 0.00 0.00 88 1015.2
20260504171013 64 8 5.0 6.0 0.00 0.00 0.00 88 1015.0
20260504170510 64 114 1.0 1.0 0.00 0.00 0.00 86 1015.3
20260504151014 70 129 0.0 0.0 0.00 0.00 0.00 66 1015.5
20260504141013 72 103 0.0 0.0 0.00 0.00 0.00 65 1016.0
20260504140510 68 112 0.0 0.0 0.00 0.00 0.00 70 1016.0
20260504130509 73 113 0.0 0.0 0.00 0.00 0.00 58 1016.4
20260504110509 72 346 0.0 0.0 0.00 0.00 0.00 55 1016.9
20260504100508 70 117 0.0 0.0 0.00 0.00 0.00 65 1017.3
20260504081514 66 48 0.0 0.0 0.00 0.00 0.00 78 1017.4
20260504081013 64 74 0.0 0.0 0.00 0.00 0.00 79 1017.4
20260504080509 64 89 0.0 0.0 0.00 0.00 0.00 78 1017.4
20260504050509 61 119 0.0 0.0 0.00 0.00 0.00 94 1016.6
20260504045509 61 175 0.0 0.0 0.00 0.00 0.00 94 1016.5
20260504045012 61 65 0.0 0.0 0.00 0.00 0.00 93 1016.5
20260504044512 61 105 1.0 1.0 0.00 0.00 0.00 93 1016.5
20260504044012 61 30 0.0 0.0 0.00 0.00 0.00 93 1016.4
20260504043509 61 101 1.0 1.0 0.00 0.00 0.00 94 1016.4
20260504043022 61 65 4.0 4.0 0.00 0.00 0.00 93 1016.4
20260504042510 61 63 0.0 0.0 0.00 0.00 0.00 94 1016.4
20260504042012 61 63 0.0 0.0 0.00 0.00 0.00 94 1016.3